Flag for Germany Weather past 2 weeks in Rheinberg, North Rhine-Westphalia, Germany

Now
62 °F

Passing clouds.


Feels Like: 62 °F
Forecast: 59 / 79 °F
Wind: 2 mph from East

Location: Duesseldorf

Current Time: Aug 1, 2014 at 1:53:11 AM

Latest Report: Aug 1, 2014 at 1:00 AM


Visibility: 25 mi

Pressure: 29.91 "Hg

Humidity: 83%

Dew point: 56 °F

Location of RheinbergLocation

Historic Weather in Rheinberg — Graph

°F

Rheinberg temperature yesterday

Maximum temperature yesterday: 78 °F (at 7:00 PM)
Minimum temperature yesterday: 54 °F (at 7:00 AM)
Average temperature yesterday: 66 °F

Past Weeks' High & Low Weather Summary

 TemperatureHumidityPressure
High93 °F (Jul 19, 5:00 PM)97% (Jul 26, 7:00 AM)30.19 "Hg (Jul 26, 7:00 AM)
Low54 °F (Jul 31, 7:00 AM)25% (Jul 19, 3:00 PM)29.77 "Hg (Jul 20, 5:00 AM)
Average71 °F70%29.94 "Hg
* Reported Midnight between Jul 16 and Jul 17 — Midnight between Jul 31 and Aug 1, Rheinberg, Weather by CustomWeather, © 2014

Note: Actual official high and low records may vary slightly from our data, if they occured in-between our weather recording intervals... More about our weather records

Advertising

Rheinberg weather history for previous 24 hours

 ConditionsComfort  
Time TempWeatherWind HumidityBarometerVisibility
12:00 AM
Aug 1
63 °FPassing clouds.1 mph83%29.92 "Hg25 mi
11:00 PM
Jul 31
64 °FPassing clouds.2 mph80%29.92 "Hg25 mi
10:00 PM65 °FPassing clouds.1 mph75%29.92 "Hg25 mi
9:00 PM71 °FPartly sunny.2 mph59%29.91 "Hg25 mi
8:00 PM76 °FScattered clouds.2 mph41%29.91 "Hg25 mi
7:00 PM78 °FPassing clouds.1 mph40%29.92 "Hg25 mi
6:00 PM78 °FPassing clouds.2 mph41%29.93 "Hg25 mi
5:00 PM77 °FScattered clouds.2 mph38%29.95 "Hg25 mi
4:00 PM76 °FPassing clouds.2 mph41%29.96 "Hg25 mi
3:00 PM75 °FPassing clouds.2 mph51%29.97 "Hg22 mi
2:00 PM72 °FPassing clouds.3 mph52%29.99 "Hg19 mi
1:00 PM71 °FPassing clouds.3 mph57%30.00 "Hg22 mi
12:00 PM69 °FPassing clouds.3 mph59%30.01 "Hg22 mi
11:00 AM67 °FPassing clouds.2 mph65%30.02 "Hg22 mi
10:00 AM65 °FPassing clouds.2 mph74%30.02 "Hg22 mi
9:00 AM62 °FPassing clouds.2 mph78%30.02 "Hg16 mi
8:00 AM59 °FSunny.1 mph87%30.02 "Hg16 mi
7:00 AM54 °FFog.1 mph94%30.02 "Hg12 mi
6:00 AM54 °FFog.1 mph95%30.01 "Hg16 mi
5:00 AM55 °FFog.1 mph93%30.01 "Hg19 mi
4:00 AM56 °FPassing clouds.1 mph92%30.01 "Hg22 mi
3:00 AM59 °FPassing clouds.1 mph85%30.00 "Hg22 mi
2:00 AM62 °FPassing clouds.2 mph81%29.99 "Hg22 mi
1:00 AM63 °FPassing clouds.2 mph80%29.98 "Hg22 mi
Weather by CustomWeather, © 2014

See weather overviewHow to use our weather pages